Location: Eppenbrunn
(49.1158°N, 7.5601°E)
Time: 10:38:22
(UTC+00:00)

SL-24 R/B - RUBIN 2 - Pass Details

Date: 09 April 2020
Orbit: 569 x 1026 km, 64.6° (Epoch: 25 May)

Event Time Altitude Azimuth Distance (km) Brightness Sun altitude
Rises 19:22:10 0° 217° (SW) 3,273 7.4 -11.4°
Reaches altitude 10° 19:24:27 10° 217° (SW) 2,414 6.7 -11.7°
Maximum altitude 19:30:06 88° 128° (SE) 905 4.3 -12.5°
Drops below altitude 10° 19:36:31 10° 40° (NE) 2,720 6.7 -13.4°
Sets 19:39:14 0° 41° (NE) 3,715 7.4 -13.8°
